Location: Ebendorf
(52.1827°N, 11.5706°E)
Time: 11:22:43
(UTC+00:00)

Cosmos 2233 Rocket - Visible Passes

Search period start: 21 September 2021 00:00
Search period end: 01 October 2021 00:00
Orbit: 953 x 990 km, 82.9° (Epoch: 20 September)

Date Brightness Start Highest point End Pass type
(mag) Time Alt. Az. Time Alt. Az. Time Alt. Az.
21 Sep 5.3 01:10:25 28° NW 01:10:25 28° NW 01:14:58 10° N visible
21 Sep 6.0 22:05:31 18° NE 22:05:31 18° NE 22:07:56 10° NE visible
21 Sep 4.9 23:50:06 46° N 23:50:06 46° N 23:54:21 10° N visible
22 Sep 5.7 01:34:42 19° NW 01:34:42 19° NW 01:38:47 10° NNW visible
22 Sep 5.6 22:29:48 25° NE 22:29:48 25° NE 22:32:52 10° NNE visible
23 Sep 5.0 00:14:23 40° NNW 00:14:23 40° NNW 00:18:37 10° N visible
23 Sep 6.0 01:58:59 13° NW 01:59:23 13° NW 02:02:04 10° NNW visible
23 Sep 5.4 22:54:04 33° NE 22:54:04 33° NE 22:57:32 10° NNE visible
24 Sep 5.3 00:38:40 30° NW 00:38:40 30° NW 00:42:44 10° N visible
24 Sep 6.2 21:33:45 14° NE 21:33:45 14° NE 21:35:11 10° NE visible
24 Sep 5.2 23:18:20 38° NNE 23:18:20 38° NNE 23:21:59 10° NNE visible
25 Sep 5.7 01:02:56 22° NW 01:02:56 22° NW 01:06:39 10° N visible
25 Sep 5.9 21:58:00 20° NE 21:58:00 20° NE 22:00:20 10° NNE visible
25 Sep 5.2 23:42:36 37° N 23:42:36 37° N 23:46:18 10° N visible
26 Sep 6.0 01:27:11 15° NW 01:27:11 15° NW 01:30:12 10° NNW visible
26 Sep 5.6 22:22:16 26° NE 22:22:16 26° NE 22:25:05 10° NNE visible
27 Sep 5.4 00:06:51 30° NNW 00:06:51 30° NNW 00:10:28 10° N visible
27 Sep 6.3 21:01:55 11° NE 21:01:55 11° NE 21:02:17 10° NE visible
27 Sep 5.5 22:46:31 31° NNE 22:46:31 31° NNE 22:49:36 10° NNE visible
28 Sep 5.7 00:31:06 23° NW 00:31:06 23° NW 00:34:28 10° N visible
28 Sep 6.1 21:26:10 16° NE 21:26:10 16° NE 21:27:45 10° NNE visible
28 Sep 5.5 23:10:45 32° N 23:10:45 32° N 23:13:57 10° N visible
29 Sep 6.0 00:55:20 17° NW 00:55:20 17° NW 00:58:12 10° NNW visible
29 Sep 5.9 21:50:24 21° NE 21:50:24 21° NE 21:52:36 10° NNE visible
29 Sep 5.6 23:34:59 29° NNW 23:34:59 29° NNW 23:38:11 10° N visible
30 Sep 6.3 01:19:35 11° NW 01:19:35 11° NW 01:21:05 10° NNW visible
30 Sep 5.7 22:14:38 26° NNE 22:14:38 26° NNE 22:17:11 10° NNE visible
